#timestamp,LO_Frequency,Hit,StdDev 
1507716015.3,286046998.7,N
1507716035.2,286046999.3,N
1507716055.0,286046999.5,N
1507716055.9,286046999.5,N
1507716075.8,286046999.2,N
1507716095.6,286046999.6,N
1507716115.4,286046999.1,N
1507716135.3,286046999.4,N
1507716155.1,286046998.5,N
1507716175.8,286046998.6,N
1507716195.7,286046998.1,N
1507716215.5,286046998.7,N
1507716235.4,286046998.8,N
1507716255.2,286046998.6,N
1507716275.0,286046998.1,N
1507716275.9,286046998.1,N
1507716295.8,286047000.8,N
1507716315.6,286046999.7,N
1507716335.5,286047000.9,N
1507716355.3,286047001.2,N
1507716375.1,286046999.9,N
1507716395.9,286047002.8,Y
1507716415.7,286047004.4,P
1507716435.6,286047001.7,N
1507716455.4,286047003.5,N
1507716475.2,286047003.0,N
1507716495.1,286047006.0,Y
1507716496.0,286047006.0,P
1507716515.8,286047002.6,N
1507716535.7,286047001.8,N
1507716555.5,286047001.5,N
1507716575.3,286047004.4,N
1507716595.2,286047001.4,N
1507716615.0,286047002.0,N
1507716615.9,286047002.0,N
1507716635.8,286047002.5,N
1507716655.6,286047002.0,N
1507716675.4,286047001.6,N
1507716695.3,286047002.0,N
1507716715.1,286047003.9,Y
1507716735.9,286047001.2,P
1507716755.7,286047001.0,N
1507716775.5,286046998.1,N
1507716795.4,286046999.5,N
1507716815.2,286046997.3,N
1507716835.0,286046999.6,N
1507716836.0,286046999.6,N
1507716855.8,286046995.1,Y
1507716875.6,286046995.4,P
1507716895.5,286046995.4,N
1507716915.3,286046997.4,N
1507716935.1,286046997.3,N
1507716955.9,286046997.1,N
1507716975.7,286046996.6,N
1507716995.6,286046998.4,N
1507717015.4,286046998.8,N
1507717035.2,286046998.9,N
1507717055.1,286046998.7,N
1507717056.0,286046998.7,N
1507717075.8,286046998.3,N
1507717095.7,286047000.3,N
1507717115.5,286046998.1,N
1507717135.3,286046999.9,N
1507717155.2,286046999.9,N
1507717175.0,286047000.6,N
1507717175.9,286047000.6,N
1507717195.7,286046999.8,N
1507717215.6,286047000.1,N
1507717235.4,286047000.9,N
1507717255.3,286047001.0,N
1507717275.1,286047002.3,N
1507717295.8,286047002.0,N
1507717315.7,286047000.4,N
1507717335.5,286046998.3,N
1507717355.4,286046998.5,N
1507717375.2,286047000.4,N
1507717395.0,286046998.2,N
1507717395.9,286046998.2,N
1507717415.8,286046998.6,N
1507717435.6,286047000.4,N
1507717455.4,286047000.0,N
1507717475.3,286047000.4,N
1507717495.1,286047000.1,N
1507717515.9,286047002.7,N
1507717535.7,286047000.0,N
1507717555.5,286046999.8,N
1507717575.4,286047002.0,N
1507717595.2,286047004.4,Y
1507717615.1,286047004.4,P
1507717616.0,286047004.4,N
1507717635.8,286047002.2,N
1507717655.7,286047002.1,N
1507717675.5,286047003.9,N
1507717695.3,286047001.3,N
1507717715.2,286047003.9,N
1507717735.9,286047002.3,N
1507717755.7,286046999.8,N
1507717775.6,286046999.8,N
1507717795.4,286046999.9,N
1507717815.2,286047000.8,N
1507717835.1,286047002.8,N
1507717836.0,286047002.8,N
1507717855.8,286047002.4,N
1507717875.7,286047002.7,N
1507717895.5,286047002.8,N
1507717915.3,286047002.5,N
1507717935.2,286047002.1,N
1507717955.0,286047002.4,N
1507717955.9,286047002.4,N
1507717975.8,286047002.6,N
1507717995.6,286047001.1,N
1507718015.4,286046999.9,N
1507718035.3,286047001.2,N
1507718055.1,286047000.4,N
1507718075.8,286047002.5,N
1507718095.7,286047002.6,N
1507718115.5,286047002.6,N
1507718135.4,286047001.4,N
1507718155.2,286047001.5,N
1507718175.0,286047000.2,N
1507718175.9,286047000.2,N
1507718195.8,286047002.2,N
1507718215.6,286047002.5,N
1507718235.5,286047000.2,N
1507718255.3,286047000.6,N
1507718275.1,286047002.5,N
1507718295.9,286047002.5,N
1507718315.7,286047001.9,N
1507718335.5,286047002.5,N
1507718355.4,286047001.9,N
1507718375.2,286047002.8,N
1507718395.1,286047002.4,N
1507718396.0,286047002.4,N
1507718415.8,286047002.7,N
1507718435.6,286046999.8,N
1507718455.5,286047002.8,N
1507718475.3,286047002.8,N
1507718495.1,286046999.7,N
1507718515.9,286047000.9,N
1507718535.7,286047000.2,N
1507718555.6,286047000.1,N
1507718575.4,286046999.9,N
1507718595.2,286046999.9,N
1507718615.1,286047000.7,N
1507718616.0,286047000.7,N
1507718635.8,286047000.9,N
1507718655.6,286047000.0,N
1507718675.5,286047002.3,N
1507718695.3,286047002.4,N
1507718715.2,286047002.8,N
1507718735.0,286047000.0,N
1507718735.9,286047000.0,N
1507718755.8,286047002.8,N
1507718775.6,286047000.6,N
1507718795.4,286046998.6,N
1507718815.3,286047011.9,Y
1507718835.1,286047011.9,P
1507718855.9,286046999.1,N
1507718875.7,286046999.5,N
1507718895.5,286046996.5,N
1507718915.4,286046999.6,N
1507718935.2,286046998.5,N
1507718955.1,286047000.9,N
1507718956.0,286047000.9,N
1507718975.8,286046998.5,N
1507718995.6,286046998.5,N
1507719015.5,286046999.3,N
1507719035.3,286047000.9,N
1507719055.1,286047000.1,N
1507719075.9,286047001.2,N
1507719095.7,286047000.6,N
1507719115.6,286046998.7,N
1507719135.4,286047000.6,N
1507719155.2,286047000.9,N
1507719175.1,286047000.1,N
1507719176.0,286047000.1,N
1507719195.8,286046998.1,N
1507719215.6,286046998.1,N
1507719235.5,286047001.0,N
1507719285.3,286047000.8,E
1507719295.3,286046998.3,N
1507719315.1,286046999.1,P
1507719335.8,286046999.3,N
1507719355.7,286046999.2,N
1507719375.5,286046999.3,N
1507719395.4,286046998.4,Y
1507719415.2,286046998.6,P
1507719435.0,286046998.6,P
1507719435.9,286046998.6,P
1507719455.8,286047001.2,Y
1507719475.6,286047000.2,P
1507719495.5,286047000.7,N
1507719515.3,286046998.1,N
1507719535.1,286046999.9,N
1507719555.9,286047002.4,N
1507719575.7,286047002.1,N
1507719595.6,286047001.8,N
